This demonstration page uses our WeatherBlox Daily Observations layout. Learn more.

38.89511, -77.03637

Hourly Observations for April 13, 2015

Temp ( °F °C ) Dew Point ( °F °C ) Humidity (%) Winds ( mph kmh ) Pressure ( in mb ) Visibility ( mi km ) Precip ( " mm )
12:52 am 00:52 Partly Cloudy 55 12.8 37 2.8 51 51 S 8 13 30.31 1027 10 16.0934 0 0
1:52 am 01:52 Partly Cloudy 54 12.2 38 3.3 55 55 S 10 17 30.3 1026 10 16.0934 0 0
2:52 am 02:52 Partly Cloudy 52 11.1 38 3.3 59 59 SE 3 6 30.28 1025 10 16.0934 0 0
3:52 am 03:52 Mostly Cloudy 53 11.7 38 3.3 57 57 S 3 6 30.29 1026 10 16.0934 0 0
4:52 am 04:52 Mostly Cloudy 52 11.1 37 2.8 57 57 SE 5 7 30.29 1026 10 16.0934 0 0
5:52 am 05:52 Mostly Cloudy 53 11.7 38 3.3 57 57 S 8 13 30.29 1026 10 16.0934 0 0
6:52 am 06:52 Mostly Cloudy 54 12.2 39 3.9 57 57 S 21 33 30.27 1025 10 16.0934 0 0
7:52 am 07:52 Mostly Cloudy 56 13.3 39 3.9 53 53 W 3 6 30.34 1027 10 16.0934 0 0
8:52 am 08:52 Mostly Cloudy 60 15.6 43 6.1 53 53 S 8 13 30.33 1027 10 16.0934 0 0
9:52 am 09:52 Cloudy 64 17.8 46 7.8 52 52 S 13 20 30.33 1027 10 16.0934 0 0
10:52 am 10:52 Mostly Cloudy 69 20.6 51 10.6 53 53 S 16 26 30.31 1026 10 16.0934 0 0
11:52 am 11:52 Partly Cloudy 72 22.2 52 11.1 50 50 SSW 15 24 30.28 1026 10 16.0934 0 0
12:52 pm 12:52 Mostly Cloudy 75 23.9 54 12.2 48 48 S 20 31 30.25 1024 10 16.0934 0 0
1:52 pm 13:52 Cloudy 78 25.6 53 11.7 42 42 S 14 22 30.22 1023 10 16.0934 0 0
2:52 pm 14:52 Cloudy 78 25.6 54 12.2 43 43 S 17 28 30.2 1023 10 16.0934 0 0
3:52 pm 15:52 Mostly Cloudy 79 26.1 53 11.7 41 41 SSW 15 24 30.17 1022 10 16.0934 0 0
4:52 pm 16:52 Mostly Cloudy 78 25.6 51 10.6 39 39 S 13 20 30.15 1021 10 16.0934 0 0
5:52 pm 17:52 Partly Cloudy 76 24.4 51 10.6 42 42 S 13 20 30.13 1020 10 16.0934 0 0
6:52 pm 18:52 Partly Cloudy 75 23.9 50 10 41 41 SSE 17 28 30.13 1020 10 16.0934 0 0
7:52 pm 19:52 Mostly Cloudy 72 22.2 48 8.9 43 43 SSE 16 26 30.14 1021 10 16.0934 0 0
8:52 pm 20:52 Partly Cloudy 68 20 49 9.4 51 51 S 14 22 30.16 1021 10 16.0934 0 0
9:52 pm 21:52 Partly Cloudy 67 19.4 48 8.9 51 51 S 14 22 30.16 1021 10 16.0934 0 0
10:52 pm 22:52 Partly Cloudy 65 18.3 50 10 59 59 S 10 17 30.15 1021 10 16.0934 0 0
11:52 pm 23:52 Partly Cloudy 66 18.9 51 10.6 59 59 S 10 17 30.15 1021 10 16.0934 0 0

Powered by AerisWeather